Location: ????? ??????
(37.8317°N, 23.8750°E)
Time: 02:05:36
(UTC+00:00)

Cosmos 1538 Rocket - Pass Details

Date: 20 January 2021
Orbit: 753 x 791 km, 74.0° (Epoch: 25 February)

Event Time Altitude Azimuth Distance (km) Brightness Sun altitude
Rises 17:11:17 0° 337° (NNW) 3,211 7.4 -18.9°
Reaches altitude 10° 17:13:40 10° 334° (NNW) 2,282 6.6 -19.4°
Maximum altitude 17:18:45 60° 255° (WSW) 859 4.5 -20.4°
Drops below altitude 10° 17:23:48 10° 177° (S) 2,273 6.5 -21.4°
Sets 17:26:11 0° 173° (S) 3,197 7.2 -21.8°
